Location: Tychy
(50.1333°N, 18.9833°E)
Time: 10:19:51
(UTC+02:00)

ISS - Visible Passes

Search period start: 26 September 2018 00:00
Search period end: 06 October 2018 00:00
Orbit: 403 x 408 km, 51.6° (Epoch: 26 September)

Date Brightness Start Highest point End Pass type
(mag) Time Alt. Az. Time Alt. Az. Time Alt. Az.
26 Sep -3.9 20:12:20 10° WSW 20:15:38 76° SSE 20:16:23 49° E visible
26 Sep -0.4 21:48:57 10° W 21:49:04 11° W 21:49:04 11° W visible
27 Sep -3.6 19:20:33 10° SW 19:23:46 53° SSE 19:26:35 13° E visible
27 Sep -2.5 20:56:59 10° W 20:59:16 39° WNW 20:59:16 39° WNW visible
28 Sep -3.8 20:05:01 10° W 20:08:19 77° NNW 20:09:23 40° ENE visible
28 Sep -0.5 21:41:41 10° WNW 21:42:03 13° WNW 21:42:03 13° WNW visible
29 Sep -3.8 19:13:05 10° WSW 19:16:23 85° SSE 19:19:26 12° ENE visible
29 Sep -2.6 20:49:42 10° W 20:52:07 42° WNW 20:52:07 42° WNW visible
30 Sep -3.6 19:57:43 10° W 20:01:00 65° N 20:02:08 36° ENE visible
30 Sep -0.6 21:34:19 10° WNW 21:34:48 13° WNW 21:34:48 13° WNW visible
01 Oct -3.7 19:05:42 10° W 19:09:00 72° N 19:12:07 11° ENE visible
01 Oct -2.7 20:42:21 10° WNW 20:44:47 45° WNW 20:44:47 45° WNW visible
02 Oct -3.7 19:50:21 10° W 19:53:39 67° N 19:54:46 37° ENE visible
02 Oct -0.6 21:26:55 10° WNW 21:27:26 14° W 21:27:26 14° W visible
03 Oct -3.6 18:58:19 10° W 19:01:36 64° N 19:04:44 11° E visible
03 Oct -2.9 20:34:54 10° WNW 20:37:24 48° W 20:37:24 48° W visible
04 Oct -3.9 19:42:54 10° WNW 19:46:13 81° NNE 19:47:23 37° E visible
04 Oct -0.6 21:19:33 10° W 21:20:03 13° W 21:20:03 13° W visible
05 Oct -3.7 18:50:52 10° WNW 18:54:11 69° N 18:57:23 11° E visible
05 Oct -2.7 20:27:27 10° WNW 20:30:03 41° WSW 20:30:03 41° WSW visible
